OpenBCM V1.13 (Linux)

Packet Radio Mailbox

DB0FHN

[JN59NK Nuernberg]

 Login: GUEST





  
LU1HVK > KEP      10.01.20 18:03l 242 Lines 12024 Bytes #999 (0) @ WW
BID : 38709_LU1HVK
Read: DJ6UX GUEST
Subj: TLE 01 11
Path: DB0FHN<OE2XZR<OE5XBL<F1OYP<IZ3LSV<ED1ZAC<GB7CIP<N3HYM<XE1FH<LU1HVK
Sent: 200110/1525Z 38709@LU1HVK.2594.CBA.ARG.SA LinBPQ6.0.19

                         _    _   _ _ _   ___     ___  __
                        | |  | | | / | | | \ \   / / |/ /
                        | |  | | | | | |_| |\ \ / /| ' /
                        | |__| |_| | |  _  | \ V / | . \
                        |_____\___/|_|_| |_|  \_/  |_|\_\

     BBS/NODO - CORDOBA (LEONES-FF87UH) - LU1HVK-4 NODO - LU1HVK-3 APRS

+----------------------------------------------------------------------------+
OSCAR 7
1  7530U 74089B   19304.17345006 -.00000043  00000-0  15315-4 0  9993
2  7530 101.7639 270.5410 0012494  87.0771 342.5424 12.53640566 57377
OSCAR 11 (UoSAT 2)
1 14781U 84021B   19304.63562786  .00000100  00000-0  18343-4 0  9990
2 14781  97.6033 322.9159 0007296 230.0597 129.9977 14.83116433918761
OSCAR 19 (LUSAT)
1 20442U 90005G   19304.78421218  .00000011  00000-0  20231-4 0  9990
2 20442  98.6618 246.6303 0012795 109.3533 250.9035 14.32936387555728
EYESAT A
1 22825U 93061C   19304.39524018 -.00000010  00000-0  14243-4 0  9997
2 22825  98.9144 296.1773 0007925 333.5130  26.5645 14.30069849361206
ITAMSAT
1 22826U 93061D   19303.94580336 -.00000013 +00000-0 +12780-4 0  9990
2 22826 098.9084 295.6917 0008297 322.3803 037.6798 14.30404001361092
RADIO ROSTO
1 23439U 94085A   19303.88208408 -.00000040 +00000-0 +68613-4 0  9994
2 23439 064.8152 259.1179 0145292 087.0019 274.7520 11.27568541023025
JAS 2
1 24278U 96046B   19303.90586054 -.00000031 +00000-0 +70284-5 0  9992
2 24278 098.5583 079.2369 0349403 252.0261 104.2509 13.53094320145708
TECHSAT 1B
1 25397U 98043D   19303.85579059 -.00000004  00000-0  17610-4 0  9998
2 25397  98.7005 242.4357 0001856  44.0020 316.1306 14.23673210106965
ISS (ZARYA)
1 25544U 98067A   19305.05459491  .00001524  00000-0  34446-4 0  9992
2 25544  51.6466  42.6317 0006071 211.4715 134.0822 15.50237916196485
PCSAT
1 26931U 01043C   19304.36479513 -.00000017  00000-0  25147-4 0  9996
2 26931  67.0532  16.1558 0007492 266.8606  93.1638 14.30556882944232
SAUDISAT 1C
1 27607U 02058C   19304.21393128  .00000048  00000-0  27548-4 0  9995
2 27607  64.5563 358.3089 0073841 230.3068 129.1509 14.75584517906889
CUTE-1
1 27844U 03031E   19304.02870484  .00000051  00000-0  42630-4 0  9997
2 27844  98.6850 310.2390 0009968   8.8057 351.3294 14.22202366847386
CUBESAT XI 4
1 27848U 03031J   19304.55181233  .00000029  00000-0  32896-4 0  9994
2 27848  98.6923 311.2811 0010038  19.0847 341.0705 14.21794442847306
MOZHAYETS 4
1 27939U 03042A   19304.77582521  .00000179  00000-0  40597-4 0  9999
2 27939  98.0602  78.1134 0012981   6.2107 353.9269 14.66813586860344
CUBESAT XI 5
1 28895U 05043F   19303.90736481 +.00000149 +00000-0 +37501-4 0  9992
2 28895 097.9789 082.1943 0015505 289.3518 070.6008 14.63704992746881
CUTE-1.7+APD II
1 32785U 08021C   19304.75210657  .00000232  00000-0  30598-4 0  9992
2 32785  97.5572 298.1495 0013265 168.6320 191.5200 14.88365722623772
DELFI C3
1 32789U 08021G   19304.66706069  .00001654  00000-0  11370-3 0  9998
2 32789  97.4498 350.1690 0012698  30.7369 329.4600 15.07219439627291
SEEDS
1 32791U 08021J   19304.74381902  .00000449  00000-0  50773-4 0  9997
2 32791  97.5321 304.2319 0014197 142.8521 217.3683 14.90899061624232
YUBELEINY
1 32953U 08025A   19304.77697010  .00000020  00000-0  75656-4 0  9996
2 32953  82.5035  60.7438 0019498 192.3393 167.7211 12.43092081519095
PRISM (HITOMI)
1 33493U 09002B   19303.83890200  .00000260  00000-0  28231-4 0  9997
2 33493  98.1244 229.8895 0016417  97.0821 263.2267 14.96785087585215
KKS-1 (KISEKI)
1 33499U 09002H   19304.76473703  .00000100  00000-0  22800-4 0  9990
2 33499  98.3387 147.7239 0010019 131.3746 228.8325 14.75474450579144
SWISSCUBE
1 35932U 09051B   19304.46915301  .00000153  00000-0  45527-4 0  9999
2 35932  98.5995 114.4985 0008641 109.9823 250.2305 14.56323917536396
BEESAT
1 35933U 09051C   19304.46408583  .00000122  00000-0  38622-4 0  9993
2 35933  98.6010 116.3064 0006775 120.5885 239.5981 14.56408089536505
ITUPSAT 1
1 35935U 09051E   19303.91226986 +.00000096 +00000-0 +33229-4 0  9997
2 35935 098.6120 115.9644 0009080 121.3231 238.8855 14.55562538536134
XIWANG-1 (HOPE-1)
1 36122U 09072B   19304.71996431 -.00000028  00000-0  37690-4 0  9999
2 36122 100.0797 300.7819 0007979  39.2424 320.9263 13.16351903474646
TISAT 1
1 36799U 10035E   19304.42649079  .00000310  00000-0  37361-4 0  9999
2 36799  98.1725 101.2005 0012375  10.5282 349.6192 14.91190296504840
JUGNU
1 37839U 11058B   19304.85558101  .00000343  00000-0  41295-4 0  9990
2 37839  19.9606 235.1221 0018845  17.7554  17.1650 14.12663235416390
SRMSAT
1 37841U 11058D   19304.18885727  .00000311  00000-0  25412-4 0  9994
2 37841  19.9725 298.7245 0011680 233.4092 210.4496 14.10641968415707
M-CUBED/EXP-1 PRIME
1 37855U 11061F   19304.37554779  .00002856  00000-0  14870-3 0  9995
2 37855 101.7197 269.1361 0172912  37.4715 323.8406 15.05711472437040
HORYU 2
1 38340U 12025D   19304.09715641  .00000206  00000-0  38089-4 0  9998
2 38340  98.3148 346.6229 0012519  59.9104 300.3344 14.75767088400982
STRAND 1
1 39090U 13009E   19303.79167987  .00000046  00000-0  31334-4 0  9992
2 39090  98.4744 147.4243 0008079 248.6338 111.3986 14.35102849349622
SOMP
1 39134U 13015E   19304.80514740  .00002057  00000-0  10162-3 0  9993
2 39134  64.8637 302.6096 0037234 281.9595  77.7359 15.20450987361133
BEESAT 3
1 39135U 13015F   19304.17811954  .00001238  00000-0  70058-4 0  9992
2 39135  64.8675 324.8526 0038460 287.5482  72.1443 15.17692152360656
BEESAT 2
1 39136U 13015G   19303.47541820  .00001113  00000-0  65383-4 0  9994
2 39136  64.8687 331.3320 0029628 292.6908  67.1086 15.17104749360467
CUBEBUG 1
1 39153U 13018D   19304.79172485  .00000250  00000-0  39457-4 0  9993
2 39153  97.9815  42.1808 0018189 118.9515 241.3524 14.80616277351802
ZACUBE
1 39417U 13066B   19303.94093006 +.00000260 +00000-0 +39087-4 0  9996
2 39417 097.5623 309.8969 0057843 314.8813 044.7711 14.81169802320916
TRITON 1
1 39427U 13066M   19304.35877266  .00000239  00000-0  45654-4 0  9994
2 39427  97.6939 273.5364 0115205  94.2585 267.1796 14.67897559318097
GOMX 1
1 39430U 13066Q   19304.77084391  .00000146  00000-0  35408-4 0  9996
2 39430  97.7620 252.5307 0150729 187.9203 171.9620 14.59301779316305
HUMSAT D
1 39433U 13066T   19304.66313980  .00000661  00000-0  69591-4 0  9998
2 39433  97.5385 346.5491 0030118 207.7217 152.2399 14.92286398323205
CUBEBUG 2
1 39440U 13066AA  19304.80420132  .00000284  00000-0  46314-4 0  9999
2 39440  97.6112 295.3244 0080427   7.1290 353.1044 14.75907872319909
FUNCUBE 1
1 39444U 13066AE  19304.74467698  .00000315  00000-0  45076-4 0  9993
2 39444  97.5591 312.7264 0056802 305.3504  54.2408 14.82000532319931
UWE-3
1 39446U 13066AG  19304.57685866  .00000255  00000-0  40499-4 0  9992
2 39446  97.5862 302.2598 0069521 341.0935  18.7697 14.78442727319199
SPROUT
1 39770U 14029E   19304.78225527  .00000716  00000-0  85091-4 0  9998
2 39770  97.8895  47.2472 0009181   9.2610 350.8769 14.87480679294914
UNISAT 6
1 40012U 14033C   19304.22169055  .00000218  00000-0  39708-4 0  9997
2 40012  97.7369 164.9039 0059025  24.9850 335.4196 14.74025360288507
DUCHIFAT 1
1 40021U 14033M   19304.33162546  .00000604  00000-0  67376-4 0  9998
2 40021  97.9267 229.3808 0012339 332.5310  27.5254 14.90721517291606
QB50P1
1 40025U 14033R   19304.77562705  .00000351  00000-0  43274-4 0  9991
2 40025  97.9053 224.2286 0012015 341.8825  18.1962 14.89010297291428
CHUBUSAT 1
1 40300U 14070C   19304.82821309  .00000853  00000-0  39961-4 0  9997
2 40300  97.3163  15.5179 0019107 303.8748 193.6879 15.22228703276579
NUDT-PHONESAT
1 40900U 15049B   19304.72873297  .00002883  00000-0  12455-3 0  9995
2 40900  97.4367 312.7683 0014376  72.3306  15.6448 15.23213231228219
ZDPS 2A
1 40901U 15049C   19304.43986381  .00001074  00000-0  56169-4 0  9995
2 40901  97.4617 308.3425 0015050  93.3944  45.4862 15.17902197227673
ZDPS 2B
1 40902U 15049D   19304.73329005  .00001727  00000-0  88616-4 0  9990
2 40902  97.4574 306.0191 0015106  90.0150 356.0945 15.17781721227699
XW-2A
1 40903U 15049E   19304.81867718  .00002584  00000-0  61949-4 0  9990
2 40903  97.3220 348.2595 0014079  22.8179  65.6819 15.42262268231073
KAITUO 1A
1 40904U 15049F   19304.77098672  .00000522  00000-0  30983-4 0  9995
2 40904  97.4710 304.5057 0016116  98.2538  21.6438 15.15479967227459
OBJECT G
1 40905U 15049G   19304.74843845  .00000545  00000-0  33204-4 0  9997
2 40905  97.4762 301.8962 0017242  94.8121  18.6331 15.14377292227313
XW-2C
1 40906U 15049H   19304.73742058  .00000999  00000-0  55645-4 0  9997
2 40906  97.4717 304.6194 0016415  90.6205 354.8702 15.15804992227455
XW-2D
1 40907U 15049J   19304.88717507  .00000688  00000-0  39199-4 0  9996
2 40907  97.4696 304.4494 0015752  87.6408 310.0566 15.16001993227494
LILACSAT 2
1 40908U 15049K   19304.76616432  .00000146  00000-0  11639-4 0  9997
2 40908  97.4835 303.0002 0017505  95.1985 351.6271 15.13877167227240
XW-2F
1 40910U 15049M   19304.80100870  .00001511  00000-0  78516-4 0  9993
2 40910  97.4650 306.5724 0016403  80.5205  43.9703 15.17504208227503
XW-2B
1 40911U 15049N   19304.73688711  .00001113  00000-0  61396-4 0  9997
2 40911  97.4718 304.9726 0015740  88.8433 356.7223 15.15933471227362
KAITUO 1B
1 40912U 15049P   19304.82327752  .00001635  00000-0  79245-4 0  9994
2 40912  97.4501 310.4486 0016399  63.9237  60.5035 15.19841913227831
TIANWANG 1C (TW-1C)
1 40926U 15051B   19304.81677964  .00017610  00000-0  23175-3 0  9994
2 40926  97.1193 350.9214 0005978 216.9309 233.9480 15.58500433231184
TIANWANG 1B (TW-1B)
1 40927U 15051C   19304.85388964  .00016322  00000-0  22957-3 0  9994
2 40927  97.1222 350.0478 0006078 231.2390 215.0041 15.56727053231027
